Location: Unspecified
(0.0000°N, 0.0000°E)
Time: 21:54:08
(UTC+02:00)

Cosmos 2219 - Visible Passes

Search period start: 29 June 2016 00:00
Search period end: 09 July 2016 00:00
Orbit: 833 x 861 km, 71.1° (Epoch: 28 June)

Date Brightness Start Highest point End Pass type
(mag) Time Alt. Az. Time Alt. Az. Time Alt. Az.
29 Jun 3.4 21:09:30 10° S 21:14:57 45° ESE 21:20:24 10° NNE visible
29 Jun 6.1 22:56:39 10° W 22:58:50 12° WNW 23:01:01 10° NW visible
30 Jun 3.5 20:56:05 10° S 21:01:31 44° ESE 21:06:55 10° NE visible
30 Jun 6.1 22:43:01 10° W 22:45:23 13° WNW 22:47:46 10° NW visible
01 Jul 3.6 20:42:40 10° S 20:48:05 42° ESE 20:53:27 10° NE visible
01 Jul 6.2 22:29:22 10° WSW 22:31:57 13° WNW 22:34:32 10° NW visible
02 Jul 3.6 20:29:16 10° S 20:34:38 41° ESE 20:39:59 10° NE visible
02 Jul 6.2 22:15:46 10° WSW 22:18:30 14° WNW 22:21:15 10° NW visible
03 Jul 6.2 22:02:10 10° WSW 22:05:04 14° WNW 22:07:58 10° NW visible
04 Jul 6.3 21:48:35 10° WSW 21:51:38 15° WNW 21:54:40 10° NW visible
05 Jul 6.3 21:35:01 10° WSW 21:38:11 15° WNW 21:41:23 10° NW visible
06 Jul 6.3 21:21:26 10° WSW 21:24:45 16° WNW 21:28:04 10° NW visible
07 Jul 6.3 21:07:53 10° WSW 21:11:18 16° WNW 21:14:45 10° NW visible
08 Jul 6.3 20:54:19 10° WSW 20:57:53 17° WNW 21:01:26 10° NW visible
